Location: Unspecified
(37.3333°N, 0.0000°E)
Time: 12:00:27
(UTC+00:00)

Tiangong 2 - Pass Details

Date: 26 May 2019
Orbit: 376 x 389 km, 42.8° (Epoch: 19 June)

Event Time Altitude Azimuth Distance (km) Brightness Sun altitude
Rises 21:21:42 0° 294° (WNW) 2,237 6.0 -21.0°
Reaches altitude 10° 21:23:50 10° 302° (WNW) 1,383 4.9 -21.2°
Enters shadow 21:26:37 42° 2° (N) 547 2.1 -21.6°
